Location: Sternwarte ZA, Rosenfeld-Brittheim
(48.2889°N, 8.6789°E)
Time: 05:07:22
(UTC+02:00)

ISS - Pass Details

Date: 02 April 2020
Orbit: 417 x 423 km, 51.6° (Epoch: 29 March)

Event Time Altitude Azimuth Distance (km) Brightness Sun altitude
Rises 21:46:37 0° 289° (WNW) 2,362 1.6 -17.8°
Reaches altitude 10° 21:48:52 10° 278° (W) 1,496 0.1 -18.1°
Maximum altitude 21:51:49 28° 217° (SW) 807 -2.3 -18.5°
Enters shadow 21:52:21 27° 198° (SSW) 838 -2.4 -18.6°
